Location: Kings Park
(40.8862°N, 73.2573°W)
Time: 10:10:51
(UTC+00:00)

SeaSat 1 - Pass Details

Date: 29 October 2020
Orbit: 744 x 747 km, 108.0° (Epoch: 23 November)

Event Time Altitude Azimuth Distance (km) Brightness Sun altitude
Exits shadow 23:00:02 14° 49° (NE) 2,029 4.2 -13.4°
Maximum altitude 23:00:17 14° 45° (NE) 2,027 4.2 -13.4°
Drops below altitude 10° 23:02:39 10° 17° (NNE) 2,271 4.7 -13.9°
Sets 23:06:02 0° 352° (N) 3,200 5.8 -14.5°
